[[{"header":{"parameterUnit":"m.s-1","parameterCategory":1,"la1":30.2991,"la2":30.254,"lo1":-89.0895,"lo2":-89.0444,"dy":0.0017,"dx":0.0017,"nx":28,"ny":28,"refTime":"2025-05-22T21:00:00:Z","depth":0,"parameterNumber":2,"parameterNumberName":"U-component_of_WINDS"},"data":[0,0,0,0,0,0,0,0,0,0,0,0,0,0,0,0,0,0,0,0,0,0,0,0,0,0,0,0,0,0,0,0,0,0,0,0,0,0,0,0,0,0,0,0,0,0,0,0,0,0,0,0,0,0,0,0,0,0,0.5931,0.5932,0,0.6001,0.6001,0.6002,0.6002,0.6001,0.6,0.5999,0.607,0.6072,0.6075,0,0,0,0,0,0,0,0,0,0,0,0,0,0.5797,0.58,0.5931,0.5932,0.5933,0.6001,0.6001,0.6002,0.6002,0.6001,0.6,0.5999,0.6069,0.6072,0.6075,0,0,0,0,0,0,0,0,0,0,0,0,0,0.586,0.5801,0.5931,0.5941,0.5942,0.6,0.6001,0.6003,0.6002,0.6001,0.6,0.5998,0.6068,0.6072,0.6076,0.6128,0,0,0.6088,0.609,0,0,0,0,0,0,0,0,0.5856,0.5865,0.5938,0.594,0.5942,0.5991,0.598,0.6045,0.6003,0.5979,0.5999,0.5998,0.6045,0.6051,0.6067,0.6132,0.6135,0.6089,0.6091,0.6093,0.6094,0,0,0,0,0,0,0,0.5852,0.5862,0.5959,0.5939,0.5942,0.5942,0.5949,0.5992,0.6019,0.5981,0.5982,0.599,0.6045,0.6063,0.6068,0.6136,0.6089,0.6092,0.6095,0.6096,0.6248,0.6249,0,0,0,0,0,0,0.5846,0.5858,0.5956,0.5961,0.5895,0.5945,0.5953,0.5977,0.6018,0.6023,0.5991,0.599,0.6056,0.6063,0.6071,0.6135,0.6093,0.6097,0.6099,0.6246,0.6248,0.625,0,0,0,0,0,0,0.5843,0.5855,0.5954,0.591,0.5922,0.5949,0.5975,0.5979,0.5996,0.6026,0.603,0.6004,0.6056,0.6065,0.6114,0.6137,0.6099,0.6102,0.6244,0.6247,0.6249,0.6264,0,0,0,0,0,0,0.5839,0.5854,0.5874,0.591,0.5925,0.5996,0.5977,0.5981,0.6003,0.6002,0.6039,0.6044,0.6055,0.6108,0.6118,0.6142,0.6105,0.6242,0.6245,0.6248,0.6262,0.6267,0.6271,0,0,0,0,0,0.5834,0.5875,0.5875,0.5887,0.595,0.5997,0.6005,0.6018,0.6005,0.6026,0.6045,0.6042,0.6133,0.6113,0.6124,0.615,0.6241,0.6244,0.6248,0.6259,0.6266,0.6271,0,0,0,0,0,0,0.5841,0.588,0.588,0.5934,0.5962,0.5997,0.6023,0.6024,0.6057,0.6054,0.6068,0.6077,0.6126,0.6143,0.612,0.6203,0.6185,0.6191,0.619,0.6196,0.6201,0.6196,0.6109,0,0,0,0,0,0.5849,0.5883,0.5916,0.596,0.5974,0.5997,0.6017,0.6025,0.6055,0.6066,0.6089,0.6118,0.6153,0.6176,0.621,0.6264,0.6272,0.6288,0.6292,0.6296,0.6301,0.6331,0.6338,0.6261,0.6261,0.6261,0,0,0.5865,0.5891,0.5912,0.5962,0.5985,0.6021,0.6007,0.6045,0.6071,0.6072,0.612,0.6138,0.6171,0.6223,0.6247,0.6239,0.6324,0.63,0.6303,0.6306,0.6335,0.6343,0.6349,0.6264,0.6263,0.6263,0,0,0.5912,0.5936,0.5975,0.5998,0.6033,0.6048,0.6057,0.6092,0.6104,0.6152,0.6154,0.6185,0.6245,0.6269,0.6289,0.6346,0.6345,0.6357,0.6381,0.641,0.6416,0.6422,0.6442,0.6449,0.6361,0.6362,0.6362,0,0.5928,0.5982,0.5995,0.6034,0.6056,0.6059,0.6099,0.6121,0.6165,0.618,0.617,0.6246,0.6268,0.6326,0.634,0.6356,0.6367,0.6352,0.6414,0.642,0.6425,0.6445,0.6452,0.6363,0.6363,0.6362,0.6362,0,0.5999,0.6037,0.6065,0.6107,0.6133,0.6172,0.6191,0.6215,0.622,0.6236,0.6285,0.6312,0.6352,0.6366,0.6371,0.6425,0.6418,0.6411,0.6394,0.6434,0.6452,0.646,0.6364,0.6364,0.6364,0.6363,0,0,0.6053,0.6103,0.6113,0.6132,0.6171,0.62,0.6239,0.6278,0.6299,0.6329,0.6362,0.6413,0.6407,0.643,0.6438,0.6464,0.6507,0.6454,0.6455,0.6462,0.6567,0.6572,0.658,0.6507,0.6508,0.651,0.6564,0,0.6104,0.6174,0.6188,0.6248,0.6283,0.6286,0.6321,0.6348,0.6364,0.6395,0.6413,0.6449,0.6438,0.6452,0.6477,0.6496,0.6528,0.6493,0.6538,0.6539,0.6529,0.659,0.6595,0.6646,0.6572,0.6573,0.6574,0,0.6174,0.6206,0.6271,0.6305,0.632,0.6351,0.6388,0.6418,0.6449,0.6459,0.6484,0.649,0.653,0.6511,0.6567,0.6543,0.6562,0.6574,0.6577,0.6581,0.6559,0.6596,0.6662,0.667,0.6585,0.6585,0.6584,0,0.6206,0.6266,0.6312,0.6329,0.637,0.6391,0.641,0.644,0.6462,0.6495,0.6509,0.6546,0.6566,0.6594,0.6609,0.6593,0.6664,0.6646,0.6673,0.6673,0.6688,0.6686,0.6757,0.67,0.67,0.67,0.67,0,0.6262,0.6301,0.6327,0.6356,0.64,0.6414,0.6458,0.6475,0.6502,0.6534,0.6539,0.6569,0.6587,0.662,0.6632,0.6677,0.6686,0.6694,0.6697,0.6694,0.6693,0.6706,0.6703,0.6702,0.6702,0.6701,0.6701,0,0.6305,0.6324,0.6375,0.641,0.642,0.6451,0.6481,0.6508,0.6524,0.6565,0.6575,0.66,0.6638,0.6656,0.6704,0.6712,0.6763,0.6763,0.6752,0.6753,0.6779,0.6776,0.6861,0.6873,0.6809,0.6809,0.681,0,0.634,0.637,0.6409,0.643,0.6449,0.6484,0.6508,0.6524,0.6547,0.6586,0.6609,0.6648,0.6679,0.6741,0.6763,0.6799,0.68,0.6828,0.6806,0.6802,0.6801,0.6798,0.6802,0.6831,0.6832,0.6833,0.6833,0,0.6399,0.6407,0.644,0.6477,0.6505,0.6534,0.6564,0.6581,0.6602,0.6628,0.6668,0.6693,0.6741,0.678,0.6818,0.6836,0.6838,0.684,0.6848,0.6845,0.6837,0.6841,0.6763,0.6838,0.6837,0.6837,0.6837,0.6836,0.6438,0.6465,0.6497,0.6534,0.6558,0.6585,0.6613,0.6632,0.6666,0.6707,0.6714,0.6756,0.6787,0.6838,0.6858,0.6891,0.6885,0.6897,0.69,0.6902,0.6904,0.6832,0.6898,0.6898,0.6898,0.6898,0.6898,0,0.6497,0.6518,0.6552,0.6593,0.6622,0.6622,0.6654,0.6679,0.6716,0.6744,0.6776,0.6821,0.6858,0.6884,0.6922,0.6943,0.6945,0.6953,0.6951,0.6955,0.6907,0.6896,0.695,0.695,0.695,0.695,0.695,0.695,0.6532,0.6577,0.6589,0.6647,0.6667,0.6709,0.6727,0.6752,0.6775,0.6826,0.6857,0.6874,0.6901,0.6941,0.6975,0.6982,0.6995,0.7003,0.7009,0.6964,0.6959,0.6953,0.6943,0.7006,0.7006,0.7054,0.7055,0.7055]},{"header":{"parameterUnit":"m.s-1","parameterCategory":1,"la1":30.2991,"la2":30.254,"lo1":-89.0895,"lo2":-89.0444,"dy":0.0017,"dx":0.0017,"nx":28,"ny":28,"refTime":"2025-05-22T21:00:00:Z","depth":0,"parameterNumber":3,"parameterNumberName":"V-component_of_WINDS"},"data":[0,0,0,0,0,0,0,0,0,0,0,0,0,0,0,0,0,0,0,0,0,0,0,0,0,0,0,0,0,0,0,0,0,0,0,0,0,0,0,0,0,0,0,0,0,0,0,0,0,0,0,0,0,0,0,0,0,0,-0.3724,-0.3724,0,-0.3672,-0.3671,-0.3671,-0.3685,-0.3686,-0.3688,-0.3689,-0.3634,-0.3632,-0.3629,0,0,0,0,0,0,0,0,0,0,0,0,0,-0.3838,-0.3836,-0.3724,-0.3724,-0.3723,-0.3672,-0.3671,-0.367,-0.3685,-0.3686,-0.3688,-0.3689,-0.3635,-0.3632,-0.3629,0,0,0,0,0,0,0,0,0,0,0,0,0,-0.3787,-0.3835,-0.3725,-0.3724,-0.3724,-0.3672,-0.3671,-0.367,-0.3685,-0.3687,-0.3688,-0.369,-0.3636,-0.3632,-0.3629,-0.3574,0,0,-0.3618,-0.3616,0,0,0,0,0,0,0,0,-0.379,-0.3783,-0.3725,-0.3724,-0.3724,-0.3687,-0.3691,-0.3638,-0.3684,-0.37,-0.3689,-0.369,-0.365,-0.3646,-0.3632,-0.3572,-0.3569,-0.3617,-0.3615,-0.3614,-0.3612,0,0,0,0,0,0,0,-0.3794,-0.3786,-0.3704,-0.3724,-0.3723,-0.3727,-0.3722,-0.3681,-0.3667,-0.3698,-0.3699,-0.3693,-0.365,-0.3636,-0.3631,-0.3568,-0.3617,-0.3614,-0.3612,-0.361,-0.3461,-0.3459,0,0,0,0,0,0,-0.3798,-0.3788,-0.3705,-0.3702,-0.3762,-0.3724,-0.3718,-0.3697,-0.3667,-0.3664,-0.3692,-0.3694,-0.3641,-0.3635,-0.3629,-0.3563,-0.3614,-0.361,-0.3608,-0.3462,-0.346,-0.3458,0,0,0,0,0,0,-0.38,-0.379,-0.3707,-0.3745,-0.3735,-0.372,-0.3697,-0.3695,-0.368,-0.3662,-0.3659,-0.3679,-0.3642,-0.3634,-0.3588,-0.3561,-0.3608,-0.3605,-0.3465,-0.3462,-0.3459,-0.343,0,0,0,0,0,0,-0.3803,-0.3791,-0.377,-0.3745,-0.3733,-0.3666,-0.3695,-0.3693,-0.3674,-0.3677,-0.365,-0.3647,-0.3643,-0.3593,-0.3584,-0.3557,-0.3602,-0.3467,-0.3463,-0.346,-0.3433,-0.3427,-0.3421,0,0,0,0,0,-0.3807,-0.3763,-0.3769,-0.3758,-0.3706,-0.3665,-0.3658,-0.3654,-0.3672,-0.3651,-0.3639,-0.3648,-0.3566,-0.3588,-0.3578,-0.355,-0.3468,-0.3464,-0.346,-0.3436,-0.3428,-0.3421,0,0,0,0,0,0,-0.3785,-0.376,-0.3765,-0.3712,-0.3691,-0.3667,-0.364,-0.3646,-0.3619,-0.3622,-0.3619,-0.3613,-0.3565,-0.3553,-0.3578,-0.3495,-0.352,-0.3514,-0.3505,-0.3497,-0.3491,-0.3494,-0.3599,0,0,0,0,0,-0.3774,-0.3742,-0.3723,-0.3677,-0.3666,-0.3655,-0.3637,-0.3636,-0.3614,-0.3605,-0.3589,-0.3567,-0.3537,-0.3516,-0.3487,-0.3432,-0.3427,-0.3408,-0.3402,-0.3397,-0.3391,-0.3361,-0.3352,-0.3445,-0.3445,-0.3445,0,0,-0.375,-0.3733,-0.3713,-0.3672,-0.3656,-0.3623,-0.3647,-0.3612,-0.3588,-0.3599,-0.3554,-0.3542,-0.3518,-0.3467,-0.3443,-0.3455,-0.3365,-0.3392,-0.3388,-0.3385,-0.3356,-0.3347,-0.334,-0.3443,-0.3443,-0.3443,0,0,-0.3691,-0.3675,-0.3635,-0.3618,-0.3593,-0.3586,-0.3577,-0.3553,-0.3546,-0.3501,-0.3509,-0.348,-0.3428,-0.341,-0.3393,-0.3329,-0.3336,-0.332,-0.3287,-0.3258,-0.3251,-0.3244,-0.3221,-0.3212,-0.3314,-0.3314,-0.3314,0,-0.3664,-0.3616,-0.3614,-0.3578,-0.356,-0.357,-0.353,-0.3514,-0.348,-0.3467,-0.3481,-0.3416,-0.34,-0.3344,-0.3329,-0.3316,-0.3305,-0.3322,-0.3252,-0.3245,-0.3239,-0.3217,-0.3208,-0.3312,-0.3313,-0.3313,-0.3313,0,-0.3585,-0.3551,-0.3522,-0.349,-0.3469,-0.3431,-0.3424,-0.3403,-0.3404,-0.3396,-0.3351,-0.3332,-0.3299,-0.3287,-0.3288,-0.3232,-0.324,-0.3253,-0.3277,-0.3229,-0.3207,-0.3199,-0.331,-0.331,-0.3311,-0.3311,0,0,-0.3507,-0.3476,-0.3465,-0.345,-0.3424,-0.3398,-0.3361,-0.3329,-0.3311,-0.3288,-0.3257,-0.3213,-0.3225,-0.3207,-0.3207,-0.3181,-0.3131,-0.3198,-0.3197,-0.3185,-0.3068,-0.3057,-0.3047,-0.3137,-0.3135,-0.3134,-0.307,0,-0.3444,-0.3379,-0.3377,-0.3318,-0.3287,-0.3297,-0.3265,-0.3245,-0.3237,-0.321,-0.3201,-0.3169,-0.3188,-0.3177,-0.3153,-0.3142,-0.3107,-0.3147,-0.3107,-0.3105,-0.3111,-0.3036,-0.3025,-0.2965,-0.3062,-0.306,-0.3059,0,-0.3362,-0.3337,-0.3274,-0.3253,-0.3239,-0.3211,-0.3182,-0.3156,-0.3134,-0.313,-0.3111,-0.3114,-0.3077,-0.3104,-0.3052,-0.308,-0.3064,-0.3056,-0.3054,-0.3048,-0.3078,-0.3028,-0.2946,-0.2937,-0.3046,-0.3047,-0.3048,0,-0.331,-0.3261,-0.3217,-0.3205,-0.3179,-0.3158,-0.3147,-0.3127,-0.3108,-0.3084,-0.3072,-0.3043,-0.3027,-0.3005,-0.3001,-0.3021,-0.2949,-0.2976,-0.2944,-0.2944,-0.2927,-0.2928,-0.284,-0.2919,-0.2919,-0.2919,-0.292,0,-0.324,-0.32,-0.3194,-0.3166,-0.3123,-0.3123,-0.308,-0.307,-0.3053,-0.3024,-0.3031,-0.3004,-0.3001,-0.2974,-0.2971,-0.2928,-0.2921,-0.2917,-0.2916,-0.2915,-0.2916,-0.2903,-0.2907,-0.2917,-0.2918,-0.2918,-0.2918,0,-0.3174,-0.3168,-0.3121,-0.3101,-0.3095,-0.3064,-0.3047,-0.3021,-0.3015,-0.2978,-0.297,-0.296,-0.2927,-0.2922,-0.2884,-0.2882,-0.2831,-0.2835,-0.2838,-0.2838,-0.2807,-0.2809,-0.2707,-0.2693,-0.2782,-0.2781,-0.2781,0,-0.3128,-0.3098,-0.3076,-0.3057,-0.3045,-0.3015,-0.2996,-0.2995,-0.2975,-0.2949,-0.2926,-0.2895,-0.287,-0.2818,-0.2807,-0.2778,-0.2781,-0.2748,-0.2777,-0.2777,-0.278,-0.2781,-0.2778,-0.2741,-0.274,-0.274,-0.2739,0,-0.3047,-0.3046,-0.3019,-0.2991,-0.2969,-0.2947,-0.2926,-0.291,-0.2906,-0.2884,-0.2851,-0.2832,-0.2793,-0.2762,-0.2734,-0.2722,-0.273,-0.273,-0.2721,-0.2719,-0.2722,-0.2719,-0.2821,-0.2732,-0.2733,-0.2733,-0.2734,-0.2734,-0.299,-0.2964,-0.2944,-0.2914,-0.2898,-0.2879,-0.2854,-0.2845,-0.2817,-0.2786,-0.2787,-0.2751,-0.2732,-0.2695,-0.2681,-0.2653,-0.2664,-0.2651,-0.2648,-0.2644,-0.2641,-0.2727,-0.2649,-0.2649,-0.2649,-0.2649,-0.2649,0,-0.2909,-0.2897,-0.2869,-0.284,-0.2816,-0.2827,-0.2804,-0.2784,-0.2752,-0.2733,-0.2709,-0.2671,-0.2642,-0.2629,-0.26,-0.258,-0.2583,-0.2572,-0.2573,-0.257,-0.2633,-0.2644,-0.2571,-0.2571,-0.2571,-0.2571,-0.2571,-0.2571,-0.2863,-0.282,-0.2817,-0.2767,-0.2755,-0.272,-0.2707,-0.2689,-0.2674,-0.2632,-0.2607,-0.26,-0.2584,-0.2554,-0.2527,-0.2524,-0.2513,-0.25,-0.2499,-0.2558,-0.2566,-0.2573,-0.2583,-0.2498,-0.2498,-0.2438,-0.2438,-0.2437]}]]